www.pogodaiklimat.ru

Погода и климат >> Архив погоды >> Индия >> Naliya


ПОГОДА в Naliya

  • Прогноз погоды в Naliya
  • Монитор погоды в Naliya
  • Климат города

АРХИВ ПОГОДЫ в Naliya

Время (UTC), дата Ветер
(напр.,м/с)
 
Видим.   Явления Облачность Т
(С)
Тd
(С)
f
(%)
Тe
(С)
Тes
(С)
Комфортность P
(гПа)
Po
(гПа)
Тmin
(С)
Tmax
(С)
R
(мм)
S
(см)
00 19.03 штиль 0 4000 м ясно +23.0 +21.5 91 +31 +31 очень
душно
1010.8 1011.0
03 19.03 штиль 0 10 км ясно +23.8 +22.0 90 +31 +35 очень
душно
1012.6 1013.0 +21.2
06 19.03 З 2 10 км ясно +29.2 +21.8 64 +30 +46 жарко 1013.8 1014.0
09 19.03 З 2 10 км ясно +33.2 +21.4 50 +41 +57 опасность
перегрева
1011.0 1011.0
12 19.03 З 2 10 км ясно +30.8 +21.3 57 +39 +41 очень
душно
1010.0 1010.0 +34.2
15 19.03 ЮЗ 1 4000 м ясно +26.0 +22.1 79 +34 +34 очень
душно
1012.2 1012.0
18 19.03 штиль 0 4000 м ясно +24.4 +22.0 86 +31 +31 очень
душно
1013.7 1014.0
21 19.03 штиль 0 4000 м ясно +21.6 +19.4 87 +27 +27 душно 1012.7 1013.0
00 20.03 штиль 0 4000 м ясно +20.8 +18.9 89 +25 +25 комфорт 1011.9 1012.0
03 20.03 штиль 0 10 км ясно +20.2 +18.6 91 +23 +28 комфорт 1013.9 1014.0 +17.8
06 20.03 штиль 0 10 км ясно +31.8 +12.2 30 +32 +55 опасность
солнечного
удара
1014.1 1014.0
09 20.03 З 1 10 км ясно +37.2 +4.6 13 +34 +53 опасность
солнечного
удара
1011.0 1011.0
12 20.03 З 2 10 км ясно +33.6 +7.8 20 +32 +34 жарко 1010.3 1010.0 +37.6
15 20.03 штиль 0 4000 м ясно +27.4 +15.7 49 +30 +30 жарко 1011.9 1012.0
18 20.03 СЗ 1 4000 м ясно +24.6 +17.5 65 +29 +29 душно 1012.7 1013.0
21 20.03 штиль 0 4000 м ясно +21.6 +16.3 72 +25 +25 комфорт 1011.7 1012.0
00 21.03 штиль 0 4000 м ясно +18.8 +14.7 77 +20 +20 1011.6 1012.0
03 21.03 штиль 0 10 км ясно +20.6 +15.6 73 +23 +28 комфорт 1013.6 1014.0 +16.6
06 21.03 штиль 0 10 км ясно +31.6 +13.8 34 +33 +55 опасность
солнечного
удара
1014.7 1015.0
09 21.03 ЮЗ 2 10 км ясно +34.4 +13.4 28 +35 +51 опасность
солнечного
удара
1012.4 1012.0
12 21.03 З 2 10 км ясно +31.4 +17.3 43 +35 +38 очень
душно
1012.2 1012.0 +34.8
15 21.03 З 2 4000 м ясно +26.6 +20.2 68 +33 +33 очень
душно
1013.2 1013.0
18 21.03 штиль 0 4000 м ясно +23.6 +20.5 83 +29 +29 душно 1014.0 1014.0
21 21.03 штиль 0 4000 м ясно +22.6 +20.8 90 +30 +30 очень
душно
1012.8 1013.0
00 22.03 штиль 0 4000 м ясно +20.6 +18.4 87 +24 +24 комфорт 1012.1 1012.0
03 22.03 штиль 0 10 км ясно +23.2 +20.8 86 +31 +35 очень
душно
1014.4 1014.0 +19.2
06 22.03 З 1 10 км ясно +30.0 +14.2 38 +32 +51 опасность
солнечного
удара
1014.5 1015.0
09 22.03 ЮЗ 2 10 км ясно +32.2 +18.7 45 +37 +53 опасность
солнечного
удара
1011.7 1012.0
12 22.03 З 2 10 км ясно +29.8 +17.2 47 +34 +36 очень
душно
1010.7 1011.0 +32.6
15 22.03 З 2 4000 м ясно +25.6 +20.4 73 +32 +32 очень
душно
1011.1 1011.0
18 22.03 штиль 0 4000 м ясно +23.6 +20.2 81 +29 +29 душно 1012.0 1012.0
21 22.03 штиль 0 4000 м ясно +23.6 +20.5 83 +29 +29 душно 1011.2 1011.0
00 23.03 штиль 0 4000 м ясно +20.6 +17.7 83 +24 +24 комфорт 1011.4 1011.0
03 23.03 З 1 10 км ясно +24.4 +22.3 88 +32 +36 очень
душно
1013.1 1013.0 +19.6
06 23.03 З 2 10 км ясно +31.0 +17.9 46 +35 +52 опасность
солнечного
удара
1013.8 1014.0
09 23.03 З 2 10 км ясно +33.6 +19.7 44 +39 +55 опасность
солнечного
удара
1010.8 1011.0
12 23.03 З 3 10 км ясно +31.4 +18.8 47 +36 +39 очень
душно
1009.8 1010.0 +34.6
15 23.03 З 1 4000 м ясно +26.4 +20.0 68 +32 +32 очень
душно
1011.0 1011.0
18 23.03 штиль 0 4000 м ясно +24.6 +20.0 76 +30 +30 очень
душно
1012.7 1013.0
21 23.03 З 1 4000 м ясно +22.6 +19.5 83 +29 +29 очень
душно
1010.7 1011.0
00 24.03 штиль 0 4000 м ясно +20.2 +17.3 83 +23 +23 комфорт 1011.2 1011.0
03 24.03 штиль 0 10 км ясно +21.6 +20.1 91 +27 +32 душно 1012.8 1013.0 +17.8
06 24.03 штиль 0 10 км ясно +29.4 +16.3 45 +33 +56 опасность
солнечного
удара
1013.3 1013.0
09 24.03 З 2 10 км 1/1 600 м
[Sc]
+33.2 +13.9 31 +34 +49 очень
жарко
1010.8 1011.0
12 24.03 З 2 10 км ясно +30.8 +12.1 32 +31 +34 жарко 1010.0 1010.0 +34.4
15 24.03 З 1 4000 м ясно +25.6 +17.7 62 +30 +30 душно 1012.3 1012.0
18 24.03 З 1 4000 м ясно +24.4 +21.1 82 +31 +31 очень
душно
1013.3 1013.0
21 24.03 штиль 0 4000 м ясно +22.8 +20.7 88 +30 +30 очень
душно
1011.6 1012.0
00 25.03 штиль 0 4000 м ясно +20.2 +17.9 87 +23 +23 комфорт 1011.1 1011.0
03 25.03 штиль 0 10 км ясно +21.2 +20.3 95 +26 +31 душно 1012.9 1013.0 +17.4
06 25.03 штиль 0 10 км ясно +30.0 +19.3 53 +36 +59 опасность
солнечного
удара
1013.3 1013.0
09 25.03 З 2 4000 м ясно +33.6 +16.6 36 +36 +53 опасность
солнечного
удара
1010.4 1010.0
12 25.03 З 3 4000 м ясно +31.4 +17.7 44 +36 +38 очень
душно
1009.4 1009.0 +34.8
15 25.03 штиль 0 4000 м ясно +26.8 +15.7 51 +30 +30 душно 1011.1 1011.0
18 25.03 штиль 0 4000 м ясно +25.0 +19.4 71 +30 +30 душно 1012.2 1012.0
21 25.03 штиль 0 4000 м ясно +22.8 +20.0 84 +29 +29 очень
душно
1011.4 1011.0

 

Местоположение метеостанции Naliya (Gujarat, Индия): широта 23.25 долгота 68.85 высота над уровнем моря 21 м.

В архиве по умолчанию представлена погода в Naliya за последнюю неделю. Архивные данные за месяц целиком и за предыдущие месяцы, начиная с января 2011 года, Вы можете получить, выбрав интересующий диапазон дат из раскрывающегося списка и нажав кнопку "Ввод!".

Внимание! Время в таблицах - всемирное. Для получения местного времени необходимо прибавить поправку, которая в Naliya равна 5.5 ч.

Смотрите также архив погоды в соседних городах и на ближайших метеорологических станциях:

Погода в Mandvi (Gujarat, Индия) (64 км)
Погода в Bhuj-Rudramata (Gujarat, Индия) (84 км)
Погода в Okha (Gujarat, Индия) (90 км)
Погода в Dwarka (Gujarat, Индия) (101 км)
Погода в Kandla (Gujarat, Индия) (129 км)
Погода в New Kandla (Gujarat, Индия) (143 км)
Погода в Badin (Пакистан) (154 км)
Погода в Porbandar (Gujarat, Индия) (197 км)
Погода в Rajkot (Gujarat, Индия) (224 км)
Погода в Hyderabad Airport (Пакистан) (241 км)

Пояснения к столбцам:

Ветер - указаны скорость ветра в м/с - средняя за 10 мин, порывы в срок и между сроками (в фигурных скобках) и направление, откуда дует ветер: С - северный, СВ - северо-восточный, В - восточный, ЮВ - юго-восточный, Ю - южный, ЮЗ - юго-западный, З - западный, СЗ - северо-западный.
Видимость - горизонтальная дальность видимости в метрах или километрах. При видимости от 1 до 10 км при отсутствии осадков обычно наблюдается дымка, при ухудшении видимости до 1 км и менее - туман. В сухую погоду видимость может ухудшаться дымом, пылью или мглою.
Явления - указаны атмосферные явления, наблюдавшиеся в срок или в последний час перед сроком; фигурными скобками обозначены явления, наблюдавшиеся между сроками (за 1-3 часа до срока); квадратными скобками обозначены град или гололедные отложения с указанием их диаметра в мм.
Облачность - указаны через наклонную черту общая и нижняя облачность в баллах и высота нижней границы облаков в метрах; квадратными скобками обозначены формы облаков: Ci - перистые, Cs - перисто-слоистые, Cc - перисто-кучевые, Ac - высококучевые, As - высокослоистые, Sc - слоисто-кучевые, Ns - слоисто-дождевые, Cu - кучевые, Cb - кучево-дождевые. Подробнее классификацию облаков см. в Атласе облаков (PDF).
T - Температура воздуха - температура, измеренная на высоте 2 м над землей.
Td - Температура точки росы - температура, при понижении до которой содержащийся в воздухе водяной пар достигнет насыщения.
f - Относительная влажность воздуха - влажноcть воздуха, измеренная на высоте 2 м над землей.
Te - Эффективная температура - температура, которую ощущает одетый по сезону человек в тени. Характеристика душности погоды. При расчете учитывается влияние влажности воздуха и скорости ветра на теплоощущения человека.
Tes - Эффективная температура на солнце - температура, которую ощущает человек, с поправкой на солнечный нагрев. Характеристика знойности погоды. Зависит от высоты солнца над горизонтом, облачности и скорости ветра. Ночью, в пасмурную погоду, а также при ветре 12 м/с и более поправка равна нулю.
P - Атмосферное давление - приведенное к уровню моря атмосферное давление.
Po - Атмосферное давление - измеренное на уровне метеостанции атмосферное давление.
Tmin - Минимальная температура - минимум температуры воздуха на высоте 2 м над землей.
Tmax - Максимальная температура - максимум температуры воздуха на высоте 2 м над землей.
R - Количество осадков - Количество выпавших осадков, мм. При наведении курсора мыши на число - период времени, за который выпало указанное количество осадков.
S - Снежный покров - Высота снежного покрова, см. При наведении курсора мыши на число - состояние снежного покрова и степень покрытия местности в баллах.